www.pogodaiklimat.ru

Погода и климат >> Архив погоды >> Австрия >> Зальцбург университет


ПОГОДА в Зальцбурге университет

  • Прогноз погоды в Зальцбурге университет
  • Монитор погоды в Зальцбурге университет

АРХИВ ПОГОДЫ в Зальцбурге университет

Время (UTC), дата Ветер
(напр.,м/с)
 
Видим.   Явления Облачность Т
(С)
Тd
(С)
f
(%)
Тe
(С)
Тes
(С)
Комфортность P
(гПа)
Po
(гПа)
Тmin
(С)
Tmax
(С)
R
(мм)
R24
(мм)
S
(см)
22 10.06 СЗ 1 н/о н/о +18.0 +14.6 81 +19 +19 1009.2 961.4
23 10.06 С 1 н/о н/о +17.9 +14.5 80 +19 +19 1009.3 961.5
00 11.06 штиль 0 н/о н/о +16.9 +14.2 84 +17 +17 1009.3 961.3
01 11.06 штиль 0 н/о н/о +15.7 +14.3 91 +15 +15 1009.6 961.4
02 11.06 С 1 н/о н/о +16.5 +14.0 85 +17 +17 1009.5 961.4
03 11.06 С 1 н/о н/о +16.5 +13.9 85 +17 +17 1009.4 961.3
04 11.06 С 1 н/о н/о +16.7 +13.8 83 +18 +18 1011.1 963.0
05 11.06 С 1 н/о н/о +16.9 +13.8 82 +18 +18 1012.4 964.3
06 11.06 С 1 н/о н/о +17.2 +13.5 79 +18 +18 1012.6 964.5 +15.4 +23.7
07 11.06 штиль 0 н/о н/о +17.9 +13.7 76 +18 +18 1011.6 963.7
08 11.06 СЗ 1 н/о н/о +18.1 +13.1 73 +19 +19 1010.8 962.9
09 11.06 С 1 н/о н/о +21.2 +14.2 64 +24 +24 комфорт 1009.1 961.8
10 11.06 штиль 0 н/о н/о +23.2 +15.4 62 +27 +27 душно 1007.7 960.8
11 11.06 СЗ 2 н/о н/о +24.6 +15.9 58 +28 +28 душно 1006.7 960.1
12 11.06 штиль 0 н/о н/о +26.2 +17.1 57 +30 +30 душно 1005.6 959.3
13 11.06 штиль 0 н/о н/о +28.0 +18.3 56 +33 +33 очень
душно
1004.6 958.6
14 11.06 С 1 н/о н/о +29.3 +16.6 46 +33 +33 душно 1003.5 957.7
15 11.06 ЮВ 1 н/о н/о +29.9 +16.2 44 +33 +33 душно 1002.7 957.1
16 11.06 ЮВ 2 н/о н/о +30.6 +11.0 30 +31 +31 жарко 1002.4 956.8
17 11.06 ЮВ 3 н/о н/о +30.2 +7.6 24 +29 +29 жарко 1003.2 957.4
18 11.06 Ю 2 н/о н/о +28.4 +9.7 31 +28 +28 жарко 1004.0 958.0 +17.1 +30.9 0.0
19 11.06 ЮВ 3 н/о н/о +26.7 +8.7 32 +27 +27 жарко 1006.0 959.6
20 11.06 ЮВ 5 н/о н/о +25.8 +8.6 34 +26 +26 жарко 1007.3 960.7
21 11.06 ЮВ 4 н/о н/о +25.1 +8.6 35 +26 +26 жарко 1007.1 960.4
22 11.06 ЮВ 4 н/о н/о +24.9 +8.6 35 +25 +25 комфорт 1006.8 960.1
23 11.06 ЮВ 5 н/о н/о +24.5 +9.2 38 +25 +25 комфорт 1006.4 959.7
00 12.06 ЮВ 2 н/о н/о +24.4 +9.4 39 +25 +25 комфорт 1006.5 959.7
01 12.06 ЮВ 2 н/о н/о +24.2 +9.7 40 +25 +25 комфорт 1006.4 959.6
02 12.06 Ю 3 н/о н/о +23.4 +10.5 44 +25 +25 комфорт 1006.0 959.1
03 12.06 ЮВ 2 н/о н/о +22.9 +10.8 46 +25 +25 комфорт 1005.4 958.5
04 12.06 штиль 0 н/о н/о +20.9 +14.2 66 +23 +23 комфорт 1005.9 958.7
05 12.06 ЮВ 1 н/о н/о +20.2 +15.7 75 +24 +24 комфорт 1005.7 958.4
06 12.06 штиль 0 н/о н/о +22.2 +16.8 71 +27 +27 душно 1004.5 957.6 +20.1 +28.5
07 12.06 штиль 0 н/о н/о +22.6 +18.2 76 +28 +28 душно 1004.4 957.6
08 12.06 штиль 0 н/о н/о +23.1 +17.9 73 +29 +29 очень
душно
1004.1 957.4
09 12.06 ЮВ 1 н/о н/о +27.1 +12.4 40 +29 +29 жарко 1003.1 957.0
10 12.06 ЮВ 2 н/о н/о +29.9 +11.9 33 +31 +31 жарко 1002.5 956.8
11 12.06 Ю 5 н/о н/о +31.1 +9.1 26 +30 +30 жарко 1003.1 957.5
12 12.06 С 2 н/о н/о +29.6 +16.2 44 +33 +33 душно 1004.6 958.8
13 12.06 СЗ 3 н/о н/о +25.3 +15.5 55 +28 +28 жарко 1006.9 960.4
14 12.06 СЗ 3 н/о н/о +22.5 +14.1 59 +26 +26 жарко 1008.9 961.8
15 12.06 СЗ 1 н/о н/о +22.3 +13.6 58 +25 +25 комфорт 1009.6 962.4
16 12.06 СЗ 2 н/о н/о +21.0 +13.4 62 +24 +24 комфорт 1010.3 962.9
17 12.06 С 2 н/о н/о +20.2 +13.7 66 +23 +23 комфорт 1010.7 963.2
18 12.06 С 1 н/о н/о +19.5 +13.4 68 +22 +22 комфорт 1011.0 963.3 +19.4 +31.9
19 12.06 С 1 н/о н/о +18.3 +13.1 72 +20 +20 1011.7 963.8
20 12.06 СЗ 1 н/о н/о +17.2 +12.8 75 +18 +18 1012.2 964.1
21 12.06 С 1 н/о н/о +16.7 +12.5 76 +18 +18 1013.0 964.8
22 12.06 штиль 0 н/о н/о +15.5 +12.5 82 +15 +15 1014.1 965.6
23 12.06 С 1 н/о н/о +16.7 +12.4 76 +18 +18 1013.9 965.6
00 13.06 СЗ 1 н/о н/о +16.2 +12.2 77 +17 +17 1013.7 965.4
01 13.06 СЗ 1 н/о н/о +16.0 +12.3 79 +17 +17 1013.7 965.3
02 13.06 С 1 н/о н/о +15.7 +12.0 79 +16 +16 1013.9 965.5
03 13.06 С 1 н/о н/о +15.4 +11.7 79 +16 +16 1014.2 965.7
04 13.06 С 1 н/о н/о +15.3 +11.6 79 +16 +16 1014.5 966.0
05 13.06 СВ 1 н/о н/о +15.6 +11.5 77 +16 +16 1015.0 966.5
06 13.06 СВ 1 н/о н/о +16.2 +12.1 77 +17 +17 1015.0 966.6 +15.1 +19.6
07 13.06 ЮВ 1 н/о н/о +17.0 +11.4 70 +18 +18 1014.8 966.5
08 13.06 С 1 н/о н/о +20.9 +12.7 59 +24 +24 комфорт 1013.8 966.2
09 13.06 С 1 н/о н/о +22.3 +12.3 53 +25 +25 комфорт 1013.0 965.7
10 13.06 СЗ 1 н/о н/о +23.9 +14.0 54 +26 +26 жарко 1012.2 965.2
11 13.06 СЗ 1 н/о н/о +24.5 +13.0 49 +27 +27 жарко 1011.5 964.6
12 13.06 СЗ 1 н/о н/о +25.9 +13.5 46 +28 +28 жарко 1010.8 964.1
13 13.06 СЗ 1 н/о н/о +26.1 +14.3 48 +28 +28 жарко 1010.2 963.6
14 13.06 СЗ 1 н/о н/о +27.0 +14.7 47 +30 +30 душно 1010.1 963.7
15 13.06 СЗ 1 н/о н/о +26.4 +14.5 48 +29 +29 жарко 1010.6 964.0
16 13.06 СЗ 1 н/о н/о +25.4 +14.2 50 +28 +28 жарко 1010.9 964.2
17 13.06 СЗ 1 н/о н/о +24.7 +14.0 51 +27 +27 жарко 1011.4 964.5
18 13.06 штиль 0 н/о н/о +23.7 +14.3 56 +26 +26 жарко 1012.3 965.2 +16.1 +27.2
19 13.06 СЗ 1 н/о н/о +22.3 +14.5 61 +26 +26 жарко 1013.2 965.9
20 13.06 штиль 0 н/о н/о +21.9 +14.0 61 +25 +25 комфорт 1014.5 967.1
21 13.06 штиль 0 н/о н/о +20.7 +15.5 72 +23 +23 комфорт 1015.3 967.7
22 13.06 штиль 0 н/о н/о +20.4 +14.7 70 +23 +23 комфорт 1015.8 968.1
23 13.06 штиль 0 н/о н/о +19.4 +14.5 73 +21 +21 комфорт 1016.5 968.6
00 14.06 штиль 0 н/о н/о +18.3 +14.5 79 +19 +19 1016.7 968.6
01 14.06 штиль 0 н/о н/о +17.1 +13.6 80 +17 +17 1017.0 968.7
02 14.06 штиль 0 н/о н/о +15.7 +13.4 86 +15 +15 1017.4 968.8
03 14.06 СЗ 1 н/о н/о +15.2 +13.1 87 +16 +16 1017.8 969.1
04 14.06 штиль 0 н/о н/о +14.4 +12.9 91 +14 +14 1018.3 969.5
05 14.06 С 1 н/о н/о +16.7 +13.7 82 +18 +18 1017.5 969.1
06 14.06 ЮВ 2 н/о н/о +20.6 +14.3 67 +24 +24 комфорт 1016.9 969.1 +14.0 +24.0
07 14.06 ЮВ 2 н/о н/о +22.9 +14.2 58 +26 +26 жарко 1016.2 968.8
08 14.06 ЮВ 1 н/о н/о +25.3 +15.1 53 +28 +28 жарко 1015.4 968.5
09 14.06 ЮВ 1 н/о н/о +27.3 +15.9 50 +31 +31 душно 1014.5 967.9
10 14.06 В 1 н/о н/о +28.2 +15.6 46 +31 +31 душно 1013.9 967.5
11 14.06 СЗ 1 н/о н/о +30.9 +15.2 39 +33 +33 душно 1012.9 966.9
12 14.06 В 1 н/о н/о +32.3 +15.7 37 +35 +35 очень
душно
1012.0 966.3
13 14.06 Ю 1 н/о н/о +32.7 +16.9 39 +36 +36 очень
душно
1011.0 965.4
14 14.06 Ю 1 н/о н/о +34.1 +17.0 36 +37 +37 очень
душно
1009.8 964.5
15 14.06 штиль 0 н/о н/о +34.1 +16.0 34 +37 +37 очень
душно
1009.0 963.7
16 14.06 штиль 0 н/о н/о +30.3 +18.5 49 +35 +35 очень
душно
1009.2 963.4
17 14.06 штиль 0 н/о н/о +27.9 +19.4 60 +34 +34 очень
душно
1009.5 963.3
18 14.06 штиль 0 н/о н/о +26.4 +19.5 66 +32 +32 очень
душно
1009.6 963.2 +19.9 +34.5
19 14.06 штиль 0 н/о н/о +23.9 +16.4 63 +27 +27 жарко 1009.6 962.7
20 14.06 штиль 0 н/о н/о +22.0 +16.4 71 +26 +26 душно 1010.3 963.1
21 14.06 штиль 0 н/о н/о +22.0 +12.8 56 +25 +25 комфорт 1010.5 963.2
22 14.06 Ю 1 н/о н/о +25.0 +7.9 34 +25 +25 комфорт 1010.3 963.4
23 14.06 ЮВ 2 н/о н/о +26.4 +7.4 30 +26 +26 жарко 1009.6 963.0
00 15.06 Ю 2 н/о н/о +26.5 +7.2 29 +26 +26 жарко 1009.6 963.0
01 15.06 Ю 1 н/о н/о +26.1 +7.2 30 +26 +26 жарко 1010.0 963.3
02 15.06 ЮВ 2 н/о н/о +25.5 +7.5 32 +26 +26 жарко 1009.8 963.0
03 15.06 ЮВ 3 н/о н/о +25.9 +7.1 30 +26 +26 жарко 1009.1 962.4
04 15.06 Ю 2 н/о н/о +24.5 +7.9 35 +25 +25 комфорт 1009.5 962.6 0.0
05 15.06 ЮВ 1 н/о н/о +24.4 +8.4 36 +25 +25 комфорт 1009.8 962.9 0.0
06 15.06 штиль 0 н/о н/о +21.9 +13.1 57 +25 +25 комфорт 1010.6 963.3 +21.3 +27.0 0.0
07 15.06 штиль 0 н/о н/о +21.7 +13.6 60 +24 +24 комфорт 1010.8 963.5
08 15.06 ЮВ 1 н/о н/о +24.3 +16.0 60 +28 +28 душно 1010.4 963.6
09 15.06 Ю 3 н/о н/о +30.1 +11.2 31 +30 +30 жарко 1009.5 963.5
10 15.06 СЗ 1 н/о н/о +29.6 +14.3 39 +32 +32 душно 1010.7 964.6
11 15.06 СЗ 1 н/о н/о +29.4 +13.4 37 +31 +31 жарко 1011.4 965.2
12 15.06 С 2 н/о н/о +29.2 +13.7 39 +31 +31 жарко 1011.5 965.3
13 15.06 С 2 н/о н/о +29.6 +15.6 43 +32 +32 душно 1011.3 965.2
14 15.06 СЗ 1 н/о н/о +27.0 +15.4 49 +30 +30 душно 1011.9 965.4
15 15.06 штиль 0 н/о ливневой дождь н/о +22.9 +19.1 79 +29 +29 очень
душно
1012.6 965.5 0.9
16 15.06 ЮВ 1 н/о осадки н/о +19.5 +17.3 87 +23 +23 комфорт 1013.9 966.2 5
17 15.06 З 1 н/о н/о +19.8 +18.4 92 +24 +24 комфорт 1014.2 966.5 0.0
18 15.06 Ю 1 н/о в посл. час осадки {ливн. осадки} н/о +19.4 +17.8 90 +23 +23 комфорт 1014.1 966.4 +19.2 +30.7 6
19 15.06 ЮВ 2 н/о осадки н/о +18.6 +16.2 86 +20 +20 1013.6 965.7 0.4
20 15.06 штиль 0 н/о в посл. час осадки н/о +18.4 +17.1 92 +19 +19 1013.8 965.9 0.2
21 15.06 штиль 0 н/о {осадки} н/о +17.5 +16.6 94 +17 +17 1014.1 966.0 0.6
22 15.06 штиль 0 н/о н/о +16.6 +15.9 96 +16 +16 1014.1 965.9
23 15.06 штиль 0 н/о н/о +16.1 +15.4 96 +16 +16 1014.9 966.5
00 16.06 штиль 0 н/о {осадки} н/о +15.5 +14.9 96 +15 +15 1015.9 967.4 0.6
01 16.06 штиль 0 н/о н/о +15.7 +13.6 87 +15 +15 1017.9 969.3
02 16.06 СЗ 1 н/о н/о +16.3 +12.5 78 +17 +17 1018.0 969.5 0.0
03 16.06 С 1 н/о н/о +16.6 +12.5 77 +17 +17 1018.3 969.8 0.0
04 16.06 С 1 н/о н/о +16.5 +12.6 78 +17 +17 1018.5 970.0
05 16.06 С 1 н/о н/о +16.4 +12.4 77 +17 +17 1019.0 970.4
06 16.06 С 1 н/о н/о +16.6 +11.9 74 +17 +17 1019.7 971.1 +15.2 +19.5 0.6
07 16.06 штиль 0 н/о н/о +16.6 +12.1 75 +17 +17 1020.1 971.5 0.0
08 16.06 штиль 0 н/о н/о +17.4 +12.5 73 +17 +17 1020.3 971.8 0.0
09 16.06 СЗ 1 н/о н/о +18.4 +12.7 69 +20 +20 1020.4 972.1 0.0
10 16.06 штиль 0 н/о н/о +19.1 +12.9 67 +20 +20 1020.5 972.3
11 16.06 СЗ 1 н/о н/о +19.8 +12.6 63 +23 +23 комфорт 1020.4 972.3
12 16.06 С 1 н/о н/о +20.2 +12.8 62 +23 +23 комфорт 1020.0 972.0 0.0
13 16.06 СЗ 1 н/о н/о +19.9 +12.9 64 +23 +23 комфорт 1020.0 972.0
14 16.06 С 1 н/о н/о +19.3 +13.2 68 +22 +22 комфорт 1020.0 971.9
15 16.06 Ю 1 н/о н/о +18.5 +13.4 72 +20 +20 1020.4 972.1
16 16.06 ЮВ 2 н/о н/о +18.0 +13.5 75 +19 +19 1020.7 972.3
17 16.06 ЮВ 2 н/о н/о +17.7 +13.5 76 +18 +18 1020.6 972.2 0.0
18 16.06 Ю 2 н/о н/о +17.9 +13.3 74 +18 +18 1020.9 972.5 +16.4 +20.4 0.0
19 16.06 ЮВ 1 н/о н/о +17.8 +12.8 73 +19 +19 1021.0 972.6 0.0
20 16.06 ЮВ 1 н/о н/о +17.2 +13.2 77 +18 +18 1021.4 972.9
21 16.06 штиль 0 н/о н/о +17.1 +13.0 77 +17 +17 1021.7 973.1 0.0
22 16.06 штиль 0 н/о н/о +16.6 +13.0 79 +17 +17 1021.7 973.1
23 16.06 Ю 1 н/о н/о +16.3 +13.0 81 +17 +17 1021.8 973.1
00 17.06 штиль 0 н/о н/о +15.7 +13.0 84 +15 +15 1021.2 972.4 0.0
01 17.06 штиль 0 н/о н/о +14.8 +13.0 89 +14 +14 1021.0 972.1
02 17.06 штиль 0 н/о н/о +14.6 +12.3 86 +14 +14 1021.2 972.2
03 17.06 штиль 0 н/о н/о +13.8 +12.4 91 +13 +13 1021.4 972.3
04 17.06 штиль 0 н/о н/о +14.1 +12.6 91 +14 +14 1021.3 972.3
05 17.06 штиль 0 н/о н/о +14.5 +12.7 89 +14 +14 1021.3 972.3
06 17.06 Ю 1 н/о н/о +16.3 +12.9 80 +17 +17 1020.6 972.0 +13.7 +17.9 0.0
07 17.06 ЮВ 1 н/о в посл. час осадки н/о +18.8 +13.4 71 +21 +21 комфорт 1020.1 971.9 0.1
08 17.06 штиль 0 н/о н/о +21.9 +13.8 60 +25 +25 комфорт 1018.8 971.2
09 17.06 ЮВ 1 н/о {осадки} н/о +22.0 +14.4 62 +25 +25 комфорт 1018.3 970.7 0.1
10 17.06 СВ 1 н/о н/о +24.8 +14.5 53 +27 +27 жарко 1017.3 970.2
11 17.06 СВ 1 н/о н/о +24.8 +13.8 50 +27 +27 жарко 1016.9 969.8
12 17.06 С 1 н/о {осадки} н/о +26.4 +14.7 49 +29 +29 жарко 1016.1 969.3 0.1
13 17.06 СВ 2 н/о н/о +24.3 +14.5 54 +27 +27 жарко 1016.2 969.1
15 17.06 С 2 н/о н/о +25.7 +13.8 48 +28 +28 жарко 1014.8 967.9
17 17.06 В 1 н/о н/о +23.5 +14.2 56 +26 +26 жарко 1014.9 967.7 0.0
18 17.06 штиль 0 н/о н/о +23.3 +14.5 58 +27 +27 душно 1014.7 967.5 +16.1 +27.0 0.1
19 17.06 штиль 0 н/о н/о +21.6 +15.2 67 +25 +25 комфорт 1015.1 967.6
20 17.06 штиль 0 н/о н/о +20.2 +14.9 72 +22 +22 комфорт 1015.8 968.0
21 17.06 штиль 0 н/о н/о +18.4 +14.7 79 +19 +19 1016.1 968.0
22 17.06 штиль 0 н/о н/о +17.1 +14.6 85 +17 +17 1016.4 968.1

 

Местоположение метеостанции Зальцбург университет (Австрия): широта 47.78 долгота 13.05 высота над уровнем моря 423 м.

В архиве по умолчанию представлена погода в Зальцбурге университет за последнюю неделю. Архивные данные за месяц целиком и за предыдущие месяцы, начиная с января 2011 года, Вы можете получить, выбрав интересующий диапазон дат из раскрывающегося списка и нажав кнопку "Ввод!".


*Определитесь, кто Вы:
робот инопланетянин человек

Внимание! Время в таблицах - всемирное. Для получения местного времени необходимо прибавить поправку, которая равна 1 ч.

Смотрите также архив погоды в соседних городах и на ближайших метеорологических станциях:

Погода в Зальцбурге (Австрия) (4 км)
Погода в Маттзе (Австрия) (23 км)
Погода в Мондзе (Австрия) (25 км)
Погода в Санкт-Вольфганге (Австрия) (30 км)
Погода в Лофере (Австрия) (34 км)
Погода в Лоферер Альме (Австрия) (36 км)
Погода в Франкенмаркте (Австрия) (36 км)
Погода в Киминге (Германия) (40 км)
Погода в Мария-Альм (Австрия) (43 км)
Погода в Бишофсхофене (Австрия) (44 км)

Пояснения к столбцам:

Ветер - указаны скорость ветра в м/с - средняя за 10 мин, порывы в срок и между сроками (в фигурных скобках) и направление, откуда дует ветер: С - северный, СВ - северо-восточный, В - восточный, ЮВ - юго-восточный, Ю - южный, ЮЗ - юго-западный, З - западный, СЗ - северо-западный.
Видимость - горизонтальная дальность видимости в метрах или километрах. При видимости от 1 до 10 км при отсутствии осадков обычно наблюдается дымка, при ухудшении видимости до 1 км и менее - туман. В сухую погоду видимость может ухудшаться дымом, пылью или мглою.
Явления - указаны атмосферные явления, наблюдавшиеся в срок или в последний час перед сроком; фигурными скобками обозначены явления, наблюдавшиеся между сроками (за 1-3 часа до срока); квадратными скобками обозначены град или гололедные отложения с указанием их диаметра в мм.
Облачность - указаны через наклонную черту общая и нижняя облачность в баллах и высота нижней границы облаков в метрах; квадратными скобками обозначены формы облаков: Ci - перистые, Cs - перисто-слоистые, Cc - перисто-кучевые, Ac - высококучевые, As - высокослоистые, Sc - слоисто-кучевые, Ns - слоисто-дождевые, Cu - кучевые, Cb - кучево-дождевые. Подробнее классификацию облаков см. в Атласе облаков (PDF).
T - Температура воздуха - температура, измеренная на высоте 2 м над землей.
Td - Температура точки росы - температура, при понижении до которой содержащийся в воздухе водяной пар достигнет насыщения.
f - Относительная влажность воздуха - влажноcть воздуха, измеренная на высоте 2 м над землей.
Te - Эффективная температура - температура, которую ощущает одетый по сезону человек в тени. Характеристика душности погоды. При расчете учитывается влияние влажности воздуха и скорости ветра на теплоощущения человека.
Tes - Эффективная температура на солнце - температура, которую ощущает человек, с поправкой на солнечный нагрев. Характеристика знойности погоды. Зависит от высоты солнца над горизонтом, облачности и скорости ветра. Ночью, в пасмурную погоду, а также при ветре 12 м/с и более поправка равна нулю.
P - Атмосферное давление - приведенное к уровню моря атмосферное давление.
Po - Атмосферное давление - измеренное на уровне метеостанции атмосферное давление.
Tmin - Минимальная температура - минимум температуры воздуха на высоте 2 м над землей.
Tmax - Максимальная температура - максимум температуры воздуха на высоте 2 м над землей.
R - Количество осадков - Количество выпавших осадков за период времени, мм. При наведении курсора мыши на число - период времени, за который выпало указанное количество осадков.
R24 - Количество осадков - Количество выпавших осадков за 24 часа, мм.
S - Снежный покров - Высота снежного покрова, см. При наведении курсора мыши на число - состояние снежного покрова и степень покрытия местности в баллах.